Content
SEND FEEDBACK

Daily
Averages
Monthly
Summary
United States of America

WILMINGTON, NORTH CAROLINA


Home > North America > United States > North Carolina
Elevation: 21 meters     Latitude: 34 16N     Longitude: 077 54W

WEATHER
 
SELECT A DAY
Number of Records: 208,677;   Date Range: 1/1/95 - 7/22/14
 
SHARE

PRINT THIS DATA

[ ← Previous Day ]
WEATHER ALMANAC - 3 FEBRUARY, 2013
[ Next Day → ]
[ °F ]   °C
Weather ElementAverageHighLow
Temperature6.9 °C12.8 °C (1:53 pm)1.7 °C (10:53 pm)
Dewpoint0.1 °C3.3 °C (1:53 am)-3.3 °C (1:53 pm)
Humidity65.6 %87 % (6:53 am)33 % (1:53 pm)
Barometer1014.2 hPa1016.6 hPa (1:53 am)1011.9 hPa (1:53 pm)
Wind Speed10.5 km/h25.9 km/h (11:53 am)
Wind Gust37 km/h (2:53 pm)
Weather ElementAverage
Visibility16.1 km
Wind DirectionSSW (213.2 °)

Weather ElementTotal
Precipitation---
Heating Degree Days11.1 (Base 18.3)
Averaged from 25 records on 3 February, 2013
WEATHER CONDITIONS BREAKOUT
WIND DIRECTION BREAKOUT
WEATHER BY HOUR - 3 FEBRUARY, 2013
[ °F ]   °C
Local TimeTemperatureDewpointHumidityBarometerVisibilityWind DirectionWind SpeedGust SpeedPrecipitationEventsConditions
1:53 AM7.2 °C3.3 °C76 %1016.6 hPa16.1 kmWest (260°)9.3 km/hMostly Cloudy
2:53 AM6.7 °C3.3 °C79 %1015.6 hPa16.1 kmWSW (240°)9.3 km/hMostly Cloudy
3:53 AM5 °C2.2 °C82 %1014.9 hPa16.1 kmCalmClear
4:53 AM4.4 °C1.7 °C83 %1014.6 hPa16.1 kmSW (220°)9.3 km/hClear
5:53 AM4.4 °C1.1 °C79 %1014.2 hPa16.1 kmWest (280°)5.6 km/hClear
6:53 AM3 °C1 °C87 %1014.6 hPa16.1 kmWSW (240°)7.4 km/hClear
7:36 AM4 °C1 °C81 %1015.6 hPa16.1 kmWest (280°)7.4 km/hMostly Cloudy
7:53 AM4.4 °C1.7 °C83 %1015.6 hPa16.1 kmWSW (240°)5.6 km/hOvercast
8:44 AM6 °C2 °C76 %1015.6 hPa16.1 kmWest (280°)13 km/hScattered Clouds
8:53 AM6.1 °C2.2 °C76 %1015.6 hPa16.1 kmWest (280°)20.4 km/h29.6 km/hPartly Cloudy
9:53 AM8.3 °C2.2 °C66 %1015.2 hPa16.1 kmWNW (300°)14.8 km/hClear
10:53 AM10 °C1.7 °C57 %1014.9 hPa16.1 kmWNW (290°)18.5 km/hClear
11:53 AM10.6 °C0 °C48 %1014.2 hPa16.1 kmWNW (300°)25.9 km/h31.5 km/hPartly Cloudy
12:53 PM12.2 °C-2.2 °C37 %1013.2 hPa16.1 kmWNW (290°)22.2 km/h35.2 km/hClear
1:53 PM12.8 °C-3.3 °C33 %1011.9 hPa16.1 kmWest (270°)24.1 km/hClear
2:53 PM12.2 °C-3.3 °C34 %1012.2 hPa16.1 kmWNW (300°)18.5 km/h37 km/hMostly Cloudy
3:53 PM12.8 °C-2.8 °C34 %1011.9 hPa16.1 kmWNW (300°)18.5 km/h29.6 km/hScattered Clouds
4:53 PM12.2 °C-2.2 °C37 %1012.5 hPa16.1 kmNW (320°)14.8 km/hScattered Clouds
5:53 PM9.4 °C-2.2 °C44 %1012.5 hPa16.1 kmNW (320°)5.6 km/hClear
6:53 PM6.1 °C0 °C65 %1013.9 hPa16.1 kmCalmClear
7:53 PM3.9 °C0 °C76 %1013.9 hPa16.1 kmCalmClear
8:53 PM2.8 °C-0.6 °C79 %1014.6 hPa16.1 kmCalmClear
9:53 PM2.2 °C-0.6 °C82 %1014.9 hPa16.1 kmCalmClear
10:53 PM1.7 °C-1.1 °C82 %1015.2 hPa16.1 kmCalmClear
11:53 PM3.9 °C-2.2 °C65 %1015.9 hPa16.1 kmNW (320°)9.3 km/hClear
Hourly data recorded from KILM, located 0 kilometers away from Wilmington, North Carolina







STORIES FROM OUR PARTNERS